This is the latest recevied weather packets stored in our database for station/object N8QQQ. If no packets are shown the sender has not sent any weather packets the latest 10 day(s).
| Time | Temp. | Humidity | Pressure | Rain* | Wind** | Luminosity | Snow |
|---|---|---|---|---|---|---|---|
| 1777916959 | 14.44° C | 47% | 992.9 hPa | 0 mm | - | 197 W/m² | - |
| 1777916656 | 14.44° C | 46% | 993.1 hPa | 0 mm | - | 239 W/m² | - |
| 1777916354 | 14.44° C | 48% | 992.7 hPa | 0 mm | - | 275 W/m² | - |
| 1777916050 | 13.89° C | 49% | 992.8 hPa | 0 mm | - | 273 W/m² | - |
| 1777915748 | 13.89° C | 49% | 992.8 hPa | 0 mm | - | 186 W/m² | - |
| 1777915443 | 14.44° C | 48% | 992.5 hPa | 0 mm | - | 235 W/m² | - |
| 1777915140 | 14.44° C | 50% | 992.4 hPa | 0 mm | - | 336 W/m² | - |
| 1777914837 | 15° C | 51% | 992.4 hPa | 0 mm | - | 399 W/m² | - |
| 1777914534 | 15° C | 51% | 992.3 hPa | 0 mm | - | 225 W/m² | - |
| 1777914230 | 15° C | 51% | 992.3 hPa | 0 mm | - | 171 W/m² | - |
| 1777913927 | 14.44° C | 52% | 992.2 hPa | 0 mm | - | 585 W/m² | - |
| 1777913624 | 13.89° C | 54% | 992.3 hPa | 0 mm | - | 433 W/m² | - |
| 1777913320 | 13.33° C | 56% | 992.3 hPa | 0 mm | - | 189 W/m² | - |
| 1777913017 | 13.33° C | 57% | 992.3 hPa | 0 mm | - | 226 W/m² | - |
| 1777912713 | 12.78° C | 58% | 992.5 hPa | 0 mm | - | 627 W/m² | - |
| 1777912409 | 13.33° C | 57% | 992.5 hPa | 0 mm | - | 124 W/m² | - |
| 1777912105 | 12.78° C | 58% | 992.7 hPa | 0 mm | - | 302 W/m² | - |
| 1777911801 | 12.78° C | 58% | 992.2 hPa | 0 mm | - | 158 W/m² | - |
| 1777911498 | 12.78° C | 60% | 992.7 hPa | 0 mm | - | 197 W/m² | - |
| 1777911195 | 12.78° C | 59% | 992.8 hPa | 0 mm | - | 160 W/m² | - |
| 1777910892 | 12.78° C | 59% | 992.5 hPa | 0 mm | - | 177 W/m² | - |
| 1777910589 | 12.78° C | 59% | 992.9 hPa | 0 mm | - | 209 W/m² | - |
| 1777910286 | 12.78° C | 58% | 992.7 hPa | 0 mm | - | 271 W/m² | - |
| 1777909983 | 13.33° C | 56% | 992.4 hPa | 0 mm | - | 151 W/m² | - |
| 1777909680 | 13.89° C | 54% | 992.3 hPa | 0 mm | - | 143 W/m² | - |
* Rain latest hour (hover to see other rain measurements)
** Current wind speed in m/s (hover to see current wind gust speed)